Weather History for Ft Lauderdale, FL

Change the Weather History Date:

Sunday, August 4, 2013

  Actual Average Record
Temperature  
Mean Temperature 84 °F 85 °F  
Max Temperature 90 °F 91 °F 100 °F (1944)
Min Temperature 77 °F 79 °F 66 °F (1937)
Degree Days  
Heating Degree Days 0 0  
Month to date heating degree days 0 0  
Since 1 June heating degree days 0 0  
Since 1 July heating degree days 0 0  
Cooling Degree Days 19 20  
Month to date cooling degree days 71 80  
Year to date cooling degree days 2536 2639  
Since 1 June cooling degree days 1140 1221  
Growing Degree Days 34 (Base 50)    
Moisture  
Dew Point 74 °F    
Average Humidity 77    
Maximum Humidity 94    
Minimum Humidity 59    
Precipitation  
Precipitation 0.01 in 0.21 in 2.59 in (1995)
Month to date precipitation 0.48 0.85  
Year to date precipitation 55.48 34.48  
Snow  
Snow 0.00 in - - ()
Month to date snowfall 0.0  
Since 1 June snowfall 0.0  
Since 1 July snowfall 0.0  
Snow Depth 0.00 in    
Sea Level Pressure  
Sea Level Pressure 30.06 in    
Wind  
Wind Speed 4 mph (SE)    
Max Wind Speed 16 mph    
Max Gust Speed 22 mph    
Visibility 10 miles    
Events Rain , Thunderstorm    
T = Trace of Precipitation, MM = Missing Value Source: NWS Daily Summary

Daily Weather History Graph

Daily Weather History Graph

Search for Another Location

Airport:

Trip Planner

Search our weather history database for the weather conditions in past years. The results will help you decide how hot, cold, wet, or windy it might be!

Date:

Astronomy

Aug. 04, 2013 Rise Set
Actual Time 6:48 AM EDT 8:04 PM EDT
Civil Twilight 6:23 AM EDT 8:29 PM EDT
Nautical Twilight 5:54 AM EDT 8:58 PM EDT
Astronomical Twilight 5:23 AM EDT 9:28 PM EDT
Moon 4:49 AM EDT (8/4) 6:26 PM EDT (8/4)
Length of Visible Light 14h 06m
Length of Day
13h 16m
Waning Crescent, 5% of the Moon is Illuminated
Aug 4
Waning Crescent
Aug 6
New
Aug 14
First Quarter
Aug 20
Full
Aug 28
Last Quarter

Hourly Weather History & Observations

Time (EDT) Temp. Heat Index Dew Point Humidity Pressure Visibility Wind Dir Wind Speed Gust Speed Precip Events Conditions
12:53 AM 78.1 °F - 75.0 °F 90% 30.11 in 10.0 mi SSW 3.5 mph - N/A   Scattered Clouds
1:53 AM 77.0 °F - 75.0 °F 94% 30.09 in 10.0 mi Calm Calm - N/A   Scattered Clouds
2:53 AM 78.1 °F - 73.9 °F 87% 30.07 in 10.0 mi Calm Calm - N/A   Scattered Clouds
3:53 AM 78.1 °F - 73.9 °F 87% 30.07 in 10.0 mi Calm Calm - N/A   Scattered Clouds
4:53 AM 78.1 °F - 75.0 °F 90% 30.07 in 10.0 mi Calm Calm - N/A   Mostly Cloudy
5:53 AM 79.0 °F - 73.0 °F 82% 30.07 in 10.0 mi Calm Calm - N/A   Mostly Cloudy
6:53 AM 79.0 °F - 73.0 °F 82% 30.08 in 10.0 mi Calm Calm - N/A   Overcast
7:53 AM 80.1 °F 84.2 °F 73.0 °F 79% 30.09 in 10.0 mi Calm Calm - N/A   Overcast
8:53 AM 82.9 °F 90.8 °F 75.9 °F 79% 30.10 in 10.0 mi Calm Calm - N/A   Partly Cloudy
9:53 AM 84.0 °F 91.9 °F 75.0 °F 74% 30.11 in 10.0 mi Calm Calm - N/A   Scattered Clouds
10:53 AM 86.0 °F 95.1 °F 75.0 °F 70% 30.10 in 10.0 mi Variable 4.6 mph - N/A   Scattered Clouds
11:53 AM 88.0 °F 94.7 °F 72.0 °F 59% 30.09 in 10.0 mi WNW 5.8 mph - N/A   Scattered Clouds
12:53 PM 88.0 °F 97.5 °F 75.0 °F 65% 30.08 in 10.0 mi South 3.5 mph - N/A   Mostly Cloudy
1:53 PM 88.0 °F 97.5 °F 75.0 °F 65% 30.05 in 10.0 mi SE 10.4 mph - N/A   Scattered Clouds
2:53 PM 89.1 °F 98.0 °F 73.9 °F 61% 30.02 in 10.0 mi SE 10.4 mph - N/A   Mostly Cloudy
3:53 PM 88.0 °F 97.5 °F 75.0 °F 65% 30.00 in 10.0 mi SSE 9.2 mph - N/A   Scattered Clouds
4:53 PM 90.0 °F 100.2 °F 75.0 °F 61% 30.00 in 10.0 mi SE 10.4 mph - N/A   Scattered Clouds
5:53 PM 87.1 °F 96.3 °F 75.0 °F 67% 30.01 in 10.0 mi SE 9.2 mph - N/A   Mostly Cloudy
6:47 PM 84.2 °F 90.9 °F 73.4 °F 70% 30.03 in 10.0 mi North 15.0 mph - N/A Thunderstorm Thunderstorm
6:53 PM 82.0 °F 87.4 °F 73.0 °F 74% 30.03 in 10.0 mi North 15.0 mph 21.9 mph N/A Thunderstorm Thunderstorm
7:53 PM 79.0 °F - 73.0 °F 82% 30.03 in 10.0 mi ENE 5.8 mph - 0.00 in Rain , Thunderstorm Light Thunderstorms and Rain
8:09 PM 78.8 °F - 73.4 °F 83% 30.04 in 10.0 mi Calm Calm - N/A Rain Light Rain
8:53 PM 79.0 °F - 75.0 °F 88% 30.04 in 10.0 mi SE 4.6 mph - N/A   Scattered Clouds
9:53 PM 80.1 °F 84.5 °F 73.9 °F 81% 30.05 in 10.0 mi East 3.5 mph - N/A   Mostly Cloudy
10:53 PM 79.0 °F - 75.0 °F 88% 30.06 in 10.0 mi SW 3.5 mph - N/A   Scattered Clouds
11:53 PM 79.0 °F - 75.0 °F 88% 30.05 in 10.0 mi SW 3.5 mph - N/A   Clear